UTY3137 YOLD-YPAD

Flight info

Callsign UTY3137
Flight time 0h 49m
Altitude 31000
Route OJJAY J251 WHA H84 MARGO
Aircraft E190/M-SDGHIRWYZ/EB1

Departure

Time 2026-05-04 07:23
Airport Olympic Dam Airport (YOLD)

Arrival

Time 2026-05-04 08:13
Airport Adelaide International Airport (YPAD)
Time Latitude Longitude Altitude Speed Heading
2026-05-04 06:48 -30.48367 136.88343 346 ft 0 kts 160°
2026-05-04 07:16 -30.48370 136.88352 357 ft 2 kts 105°
2026-05-04 07:16 -30.48367 136.88358 354 ft 0 kts 59°
2026-05-04 07:16 -30.48365 136.88359 354 ft 1 kts 46°
2026-05-04 07:17 -30.48357 136.88359 342 ft 2 kts
2026-05-04 07:17 -30.48337 136.88345 352 ft 6 kts 328°
2026-05-04 07:17 -30.48283 136.88313 348 ft 12 kts 339°
2026-05-04 07:17 -30.48192 136.88300 355 ft 14 kts 45°
2026-05-04 07:18 -30.48155 136.88413 354 ft 15 kts 71°
2026-05-04 07:18 -30.48124 136.88484 353 ft 2 kts 137°
2026-05-04 07:18 -30.48131 136.88481 350 ft 1 kts 193°
2026-05-04 07:18 -30.48139 136.88469 349 ft 3 kts 229°
2026-05-04 07:19 -30.48148 136.88449 346 ft 0 kts 251°
2026-05-04 07:22 -30.48177 136.88353 344 ft 32 kts 249°
2026-05-04 07:22 -30.48338 136.87839 348 ft 101 kts 251°
2026-05-04 07:23 -30.48641 136.86843 412 ft 151 kts 250°
2026-05-04 07:23 -30.48984 136.85673 1090 ft 154 kts 241°
2026-05-04 07:23 -30.49726 136.84781 1483 ft 164 kts 207°
2026-05-04 07:23 -30.50792 136.84303 2064 ft 171 kts 196°
2026-05-04 07:24 -30.52016 136.84162 2574 ft 188 kts 178°
2026-05-04 07:24 -30.53349 136.84398 3120 ft 197 kts 173°
2026-05-04 07:24 -30.54739 136.84683 3566 ft 210 kts 174°
2026-05-04 07:24 -30.56220 136.84975 4094 ft 222 kts 174°
2026-05-04 07:25 -30.57803 136.85285 4474 ft 244 kts 173°
2026-05-04 07:26 -30.70483 136.87772 9307 ft 277 kts 173°
2026-05-04 07:27 -30.72407 136.88142 9976 ft 282 kts 174°
2026-05-04 07:27 -30.74392 136.88524 10366 ft 296 kts 173°
2026-05-04 07:27 -30.76466 136.88950 10840 ft 306 kts 173°
2026-05-04 07:27 -30.78596 136.89380 11404 ft 313 kts 173°
2026-05-04 07:28 -30.80735 136.89815 12022 ft 317 kts 173°
2026-05-04 07:28 -30.82918 136.90264 12688 ft 321 kts 173°
2026-05-04 07:28 -30.85140 136.90721 13356 ft 324 kts 173°
2026-05-04 07:28 -30.87381 136.91183 14019 ft 328 kts 173°
2026-05-04 07:29 -30.89641 136.91653 14656 ft 330 kts 173°
2026-05-04 07:29 -30.91882 136.92126 15278 ft 333 kts 173°
2026-05-04 07:29 -30.94166 136.92605 15916 ft 334 kts 173°
2026-05-04 07:29 -30.96466 136.93084 16505 ft 337 kts 172°
2026-05-04 07:30 -30.98791 136.93568 17102 ft 339 kts 172°
2026-05-04 07:30 -31.01128 136.94061 17680 ft 342 kts 172°
2026-05-04 07:30 -31.03483 136.94567 18268 ft 345 kts 172°
2026-05-04 07:30 -31.05828 136.95074 18793 ft 347 kts 172°
2026-05-04 07:31 -31.08216 136.95590 19312 ft 350 kts 172°
2026-05-04 07:31 -31.10625 136.96120 19858 ft 353 kts 172°
2026-05-04 07:33 -31.27877 136.99993 23346 ft 370 kts 171°
2026-05-04 07:33 -31.30419 137.00581 23769 ft 373 kts 171°
2026-05-04 07:33 -31.32978 137.01176 24117 ft 376 kts 171°
2026-05-04 07:33 -31.35558 137.01784 24459 ft 379 kts 171°
2026-05-04 07:34 -31.38117 137.02392 24814 ft 381 kts 171°
2026-05-04 07:34 -31.40727 137.03015 25167 ft 384 kts 171°
2026-05-04 07:34 -31.43364 137.03645 25520 ft 387 kts 171°
2026-05-04 07:34 -31.46017 137.04283 25876 ft 390 kts 171°
2026-05-04 07:35 -31.48681 137.04927 26220 ft 393 kts 171°
2026-05-04 07:35 -31.51381 137.05586 26555 ft 396 kts 171°
2026-05-04 07:35 -31.54053 137.06239 26881 ft 399 kts 171°
2026-05-04 07:35 -31.56787 137.06913 27196 ft 401 kts 171°
2026-05-04 07:36 -31.59535 137.07594 27497 ft 404 kts 171°
2026-05-04 07:36 -31.62302 137.08283 27806 ft 406 kts 171°
2026-05-04 07:38 -31.82040 137.13277 29718 ft 423 kts 171°
2026-05-04 07:38 -31.84888 137.14006 29995 ft 424 kts 171°
2026-05-04 07:38 -31.87793 137.14753 30229 ft 427 kts 171°
2026-05-04 07:38 -31.90711 137.15506 30439 ft 428 kts 171°
2026-05-04 07:39 -31.93633 137.16261 30641 ft 430 kts 171°
2026-05-04 07:39 -31.96519 137.17010 30835 ft 431 kts 171°
2026-05-04 07:39 -31.99458 137.17768 31043 ft 432 kts 171°
2026-05-04 07:39 -32.02401 137.18528 31190 ft 436 kts 171°
2026-05-04 07:40 -32.08433 137.20122 31216 ft 449 kts 171°
2026-05-04 07:40 -32.14591 137.21756 31222 ft 461 kts 171°
2026-05-04 07:41 -32.20896 137.23430 31125 ft 464 kts 171°
2026-05-04 07:41 -32.27191 137.25101 31125 ft 466 kts 171°
2026-05-04 07:42 -32.33526 137.26784 31125 ft 467 kts 171°
2026-05-04 07:42 -32.39879 137.28474 31116 ft 467 kts 171°
2026-05-04 07:43 -32.46190 137.30155 31123 ft 467 kts 171°
2026-05-04 07:43 -32.52457 137.32300 31122 ft 469 kts 166°
2026-05-04 07:44 -32.58636 137.34641 31126 ft 469 kts 166°
2026-05-04 07:44 -32.64886 137.37003 31125 ft 469 kts 166°
2026-05-04 07:45 -32.71071 137.39344 31116 ft 469 kts 166°
2026-05-04 07:45 -32.77302 137.41700 31124 ft 467 kts 166°
2026-05-04 07:46 -32.83471 137.44035 31123 ft 468 kts 166°
2026-05-04 07:46 -32.89686 137.46392 31121 ft 468 kts 166°
2026-05-04 07:47 -32.95906 137.48753 31122 ft 468 kts 166°
2026-05-04 07:49 -33.20664 137.58052 31128 ft 467 kts 167°
2026-05-04 07:49 -33.26813 137.60347 31118 ft 463 kts 167°
2026-05-04 07:50 -33.32977 137.62649 31125 ft 464 kts 167°
2026-05-04 07:50 -33.39146 137.64957 31128 ft 464 kts 167°
2026-05-04 07:51 -33.45279 137.67255 31133 ft 463 kts 167°
2026-05-04 07:51 -33.51422 137.69561 31130 ft 461 kts 167°
2026-05-04 07:52 -33.57526 137.71855 31127 ft 461 kts 167°
2026-05-04 07:52 -33.63656 137.74169 31127 ft 462 kts 167°
2026-05-04 07:54 -33.87090 137.83064 31133 ft 461 kts 167°
2026-05-04 07:55 -33.93177 137.85383 31117 ft 459 kts 167°
2026-05-04 07:55 -33.96207 137.86540 30747 ft 450 kts 167°
2026-05-04 07:55 -33.99138 137.87664 30467 ft 434 kts 167°
2026-05-04 07:56 -34.02001 137.88756 29746 ft 428 kts 167°
2026-05-04 07:56 -34.04809 137.89833 29246 ft 417 kts 167°
2026-05-04 07:56 -34.07522 137.90869 28675 ft 409 kts 167°
2026-05-04 07:56 -34.10209 137.91897 28124 ft 403 kts 167°
2026-05-04 07:57 -34.12879 137.92918 27600 ft 399 kts 167°
2026-05-04 07:57 -34.15518 137.93929 27070 ft 395 kts 167°
2026-05-04 07:57 -34.18138 137.94934 26542 ft 391 kts 167°
2026-05-04 07:57 -34.20685 137.95910 26030 ft 386 kts 167°
2026-05-04 07:58 -34.23237 137.96891 25522 ft 382 kts 167°
2026-05-04 07:58 -34.25762 137.97859 25015 ft 378 kts 167°
2026-05-04 07:58 -34.28255 137.98819 24512 ft 374 kts 167°
2026-05-04 07:58 -34.30720 137.99766 24022 ft 370 kts 167°
2026-05-04 07:59 -34.33160 138.00706 23501 ft 365 kts 167°
2026-05-04 07:59 -34.35566 138.01633 23057 ft 358 kts 166°
2026-05-04 07:59 -34.37823 138.02821 22402 ft 362 kts 155°
2026-05-04 07:59 -34.40045 138.04375 21182 ft 375 kts 150°
2026-05-04 08:00 -34.41924 138.06624 19969 ft 386 kts 130°
2026-05-04 08:00 -34.43256 138.09459 18770 ft 387 kts 122°
2026-05-04 08:00 -34.44442 138.12367 17571 ft 379 kts 121°
2026-05-04 08:02 -34.53122 138.30221 14933 ft 344 kts 127°
2026-05-04 08:02 -34.54356 138.32690 14472 ft 339 kts 127°
2026-05-04 08:02 -34.55568 138.35121 14023 ft 333 kts 127°
2026-05-04 08:03 -34.56762 138.37517 13553 ft 328 kts 126°
2026-05-04 08:03 -34.57930 138.39870 13147 ft 321 kts 126°
2026-05-04 08:03 -34.59075 138.42173 12721 ft 316 kts 126°
2026-05-04 08:03 -34.60185 138.44413 12323 ft 311 kts 126°
2026-05-04 08:04 -34.61296 138.46656 11899 ft 308 kts 126°
2026-05-04 08:04 -34.62393 138.48872 11478 ft 305 kts 126°
2026-05-04 08:04 -34.63481 138.51071 11086 ft 302 kts 126°
2026-05-04 08:04 -34.64560 138.53253 10690 ft 300 kts 125°
2026-05-04 08:05 -34.65638 138.55432 10209 ft 302 kts 125°
2026-05-04 08:05 -34.66720 138.57625 9756 ft 301 kts 125°
2026-05-04 08:05 -34.67790 138.59799 9382 ft 296 kts 125°
2026-05-04 08:05 -34.68833 138.61915 8990 ft 294 kts 124°
2026-05-04 08:06 -34.69881 138.64045 8607 ft 292 kts 124°
2026-05-04 08:06 -34.70921 138.66158 8225 ft 291 kts 125°
2026-05-04 08:06 -34.71961 138.68273 7838 ft 290 kts 124°
2026-05-04 08:06 -34.73067 138.70308 7453 ft 286 kts 136°
2026-05-04 08:08 -34.83474 138.70386 4383 ft 226 kts 232°
2026-05-04 08:08 -34.84359 138.68884 3856 ft 215 kts 236°
2026-05-04 08:10 -34.89893 138.60346 1331 ft 138 kts 232°
2026-05-04 08:11 -34.90501 138.59449 1125 ft 136 kts 230°
2026-05-04 08:11 -34.91712 138.57736 791 ft 128 kts 231°
2026-05-04 08:11 -34.92291 138.56904 606 ft 128 kts 230°
2026-05-04 08:12 -34.92874 138.56065 445 ft 131 kts 232°
2026-05-04 08:12 -34.93426 138.55258 269 ft 120 kts 232°
2026-05-04 08:12 -34.93962 138.54469 108 ft 126 kts 231°
2026-05-04 08:12 -34.94517 138.53663 22 ft 110 kts 231°
2026-05-04 08:13 -34.94891 138.53127 22 ft 45 kts 230°
2026-05-04 08:13 -34.94899 138.52986 20 ft 15 kts 350°
2026-05-04 08:13 -34.94798 138.53027 21 ft 16 kts 20°
2026-05-04 08:13 -34.94688 138.53076 22 ft 18 kts 19°
2026-05-04 08:14 -34.94571 138.53128 22 ft 16 kts 19°
2026-05-04 08:14 -34.94505 138.53179 23 ft 10 kts 72°